Hallock, MN

11:53 AM CST on December 07, 2016 (GMT -0600)
Hallock Municipal

Weather History for KHCO - September, 2013

Change the Weather History Date:

Wednesday, September 4, 2013

  Actual Average Record
Temperature  
Mean Temperature 56 °F -  
Max Temperature 69 °F 76 °F 94 °F (1978)
Min Temperature 42 °F 51 °F 36 °F (1958)
Degree Days  
Heating Degree Days 10    
Growing Degree Days 6 (Base 50)    
Moisture  
Dew Point 43 °F    
Average Humidity 65    
Maximum Humidity 93    
Minimum Humidity 30    
Precipitation  
Precipitation 0.00 in - - ()
Sea Level Pressure  
Sea Level Pressure 30.18 in    
Wind  
Wind Speed 5 mph (NNE)    
Max Wind Speed 9 mph    
Max Gust Speed -    
Visibility 9 miles    
Events      
Averages and records for this station are not official NWS values.
T = Trace of Precipitation, MM = Missing Value Source: NWS Daily Summary

Daily Weather History Graph

Daily Weather History Graph

Search for Another Location

Airport or City:

Trip Planner

Search our weather history database for the weather conditions in past years. The results will help you decide how hot, cold, wet, or windy it might be!

Date:

Astronomy

Sep. 04, 2013 Rise Set
Actual Time 6:49 AM CDT 8:03 PM CDT
Civil Twilight 6:16 AM CDT 8:35 PM CDT
Nautical Twilight 5:37 AM CDT 9:14 PM CDT
Astronomical Twilight 4:55 AM CDT 9:56 PM CDT
Moon 6:03 AM CDT (9/4) 7:20 PM CDT (9/4)
Length of Visible Light 14h 18m
Length of Day
13h 13m
Waning Crescent, 1% of the Moon is Illuminated
Sep 4
Waning Crescent
Sep 5
New
Sep 12
First Quarter
Sep 19
Full
Sep 26
Last Quarter

Hourly Weather History & Observations

Time (CDT) Temp. Windchill Dew Point Humidity Pressure Visibility Wind Dir Wind Speed Gust Speed Precip Events Conditions
12:13 AM 57.2 °F - 42.8 °F 59% 30.09 in 10.0 mi North 8.1 mph - N/A   Clear
12:33 AM 55.4 °F - 42.8 °F 63% 30.10 in 10.0 mi NNW 4.6 mph - N/A   Clear
12:53 AM 53.6 °F - 44.6 °F 72% 30.11 in 10.0 mi North 5.8 mph - N/A   Clear
1:13 AM 53.6 °F - 46.4 °F 77% 30.11 in 10.0 mi NNW 8.1 mph - N/A   Clear
1:33 AM 51.8 °F - 46.4 °F 82% 30.11 in 10.0 mi NNW 5.8 mph - N/A   Clear
1:53 AM 51.8 °F - 46.4 °F 82% 30.12 in 10.0 mi NNW 8.1 mph - N/A   Clear
2:13 AM 50.0 °F - 46.4 °F 87% 30.12 in 10.0 mi North 8.1 mph - N/A   Clear
2:33 AM 51.8 °F - 44.6 °F 76% 30.12 in 10.0 mi North 9.2 mph - N/A   Clear
2:53 AM 50.0 °F - 44.6 °F 82% 30.13 in 10.0 mi North 9.2 mph - N/A   Clear
3:13 AM 48.2 °F - 44.6 °F 87% 30.13 in 10.0 mi North 5.8 mph - N/A   Clear
3:33 AM 48.2 °F - 44.6 °F 87% 30.13 in 10.0 mi North 6.9 mph - N/A   Clear
3:53 AM 48.2 °F - 44.6 °F 87% 30.13 in 10.0 mi North 8.1 mph - N/A   Clear
4:13 AM 46.4 °F 42.9 °F 44.6 °F 93% 30.13 in 10.0 mi North 6.9 mph - N/A   Clear
4:33 AM 46.4 °F 43.5 °F 44.6 °F 93% 30.13 in 10.0 mi North 5.8 mph - N/A   Clear
4:53 AM 46.4 °F 44.3 °F 42.8 °F 87% 30.14 in 10.0 mi North 4.6 mph - N/A   Clear
5:13 AM 44.6 °F 43.1 °F 42.8 °F 93% 30.14 in 10.0 mi NNE 3.5 mph - N/A   Clear
5:33 AM 44.6 °F 43.1 °F 42.8 °F 93% 30.15 in 10.0 mi North 3.5 mph - N/A   Clear
5:53 AM 44.6 °F 41.4 °F 42.8 °F 93% 30.15 in 10.0 mi North 5.8 mph - N/A   Clear
6:13 AM 44.6 °F 43.1 °F 42.8 °F 93% 30.15 in 10.0 mi NNE 3.5 mph - N/A   Clear
6:33 AM 42.8 °F - 41.0 °F 93% 30.16 in 10.0 mi Calm Calm - N/A   Clear
6:53 AM 44.6 °F 43.1 °F 42.8 °F 93% 30.17 in 10.0 mi North 3.5 mph - N/A   Clear
7:13 AM 44.6 °F 43.1 °F 42.8 °F 93% 30.18 in 10.0 mi North 3.5 mph - N/A   Clear
7:33 AM 44.6 °F - 42.8 °F 93% 30.19 in 10.0 mi Calm Calm - N/A   Clear
7:53 AM 46.4 °F 44.3 °F 44.6 °F 93% 30.19 in 10.0 mi North 4.6 mph - N/A   Clear
8:13 AM 46.4 °F 44.3 °F 44.6 °F 93% 30.20 in 10.0 mi NNE 4.6 mph - N/A   Clear
8:34 AM 48.2 °F - 46.4 °F 93% 30.20 in 10.0 mi Calm Calm - N/A   Clear
8:53 AM 51.8 °F - 46.4 °F 82% 30.20 in 10.0 mi Calm Calm - N/A   Clear
9:13 AM 53.6 °F - 48.2 °F 82% 30.21 in 10.0 mi NE 4.6 mph - N/A   Clear
9:34 AM 55.4 °F - 48.2 °F 77% 30.21 in 10.0 mi ENE 5.8 mph - N/A   Clear
9:53 AM 57.2 °F - 48.2 °F 72% 30.21 in 10.0 mi ENE 5.8 mph - N/A   Clear
10:13 AM 60.8 °F - 46.4 °F 59% 30.21 in 10.0 mi East 4.6 mph - N/A   Clear
10:34 AM 62.6 °F - 48.2 °F 59% 30.22 in 10.0 mi ENE 5.8 mph - N/A   Clear
10:53 AM 62.6 °F - 48.2 °F 59% 30.23 in 10.0 mi East 3.5 mph - N/A   Clear
11:13 AM 62.6 °F - 46.4 °F 55% 30.22 in 10.0 mi East 3.5 mph - N/A   Clear
11:33 AM 62.6 °F - 46.4 °F 55% 30.22 in 10.0 mi Calm Calm - N/A   Clear
11:53 AM 64.4 °F - 46.4 °F 52% 30.22 in 10.0 mi Calm Calm - N/A   Clear
12:13 PM 64.4 °F - 44.6 °F 49% 30.22 in 10.0 mi Calm Calm - N/A   Clear
12:33 PM 66.2 °F - 42.8 °F 43% 30.22 in 10.0 mi Calm Calm - N/A   Clear
12:53 PM 66.2 °F - 39.2 °F 37% 30.22 in 10.0 mi NNW 3.5 mph - N/A   Clear
1:13 PM 66.2 °F - 41.0 °F 40% 30.22 in 10.0 mi Calm Calm - N/A   Clear
1:33 PM 66.2 °F - 39.2 °F 37% 30.21 in 10.0 mi North 3.5 mph - N/A   Clear
1:53 PM 66.2 °F - 39.2 °F 37% 30.21 in 10.0 mi North 4.6 mph - N/A   Clear
2:13 PM 66.2 °F - 39.2 °F 37% 30.20 in 10.0 mi North 3.5 mph - N/A   Clear
2:33 PM 66.2 °F - 39.2 °F 37% 30.20 in 10.0 mi North 3.5 mph - N/A   Clear
2:53 PM 66.2 °F - 41.0 °F 40% 30.20 in 10.0 mi NNE 4.6 mph - N/A   Clear
3:13 PM 66.2 °F - 39.2 °F 37% 30.19 in 10.0 mi North 5.8 mph - N/A   Clear
3:33 PM 68.0 °F - 39.2 °F 35% 30.20 in 10.0 mi North 6.9 mph - N/A   Clear
3:53 PM 69.8 °F - 37.4 °F 31% 30.20 in 10.0 mi NNE 3.5 mph - N/A   Clear
4:13 PM 68.0 °F - 35.6 °F 30% 30.19 in 10.0 mi Calm Calm - N/A   Clear
4:33 PM 66.2 °F - 37.4 °F 35% 30.19 in 10.0 mi Calm Calm - N/A   Clear
4:53 PM 69.8 °F - 37.4 °F 31% 30.19 in 10.0 mi Calm Calm - N/A   Clear
5:13 PM 69.8 °F - 41.0 °F 35% 30.19 in 10.0 mi NNW 5.8 mph - N/A   Clear
5:32 PM 69.8 °F - 42.8 °F 38% 30.19 in 10.0 mi North 5.8 mph - N/A   Clear
5:53 PM 69.8 °F - 41.0 °F 35% 30.18 in 10.0 mi North 5.8 mph - N/A   Clear
6:13 PM 69.8 °F - 37.4 °F 31% 30.18 in 10.0 mi NNE 5.8 mph - N/A   Clear
6:32 PM 68.0 °F - 37.4 °F 33% 30.18 in 10.0 mi NNE 5.8 mph - N/A   Clear
6:53 PM 66.2 °F - 37.4 °F 35% 30.18 in 10.0 mi NNE 4.6 mph - N/A   Clear
7:13 PM 66.2 °F - 41.0 °F 40% 30.18 in 10.0 mi NNE 3.5 mph - N/A   Clear
7:33 PM 62.6 °F - 39.2 °F 42% 30.17 in 7.0 mi NE 3.5 mph - N/A   Clear
7:53 PM 60.8 °F - 44.6 °F 55% 30.18 in 10.0 mi Calm Calm - N/A   Clear
8:13 PM 57.2 °F - 46.4 °F 67% 30.17 in 10.0 mi Calm Calm - N/A   Clear
8:33 PM 57.2 °F - 46.4 °F 67% 30.18 in 4.0 mi Calm Calm - N/A   Haze
8:53 PM 57.2 °F - 46.4 °F 67% 30.18 in 4.0 mi Calm Calm - N/A   Haze
9:13 PM 55.4 °F - 46.4 °F 72% 30.18 in 2.5 mi ENE 3.5 mph - N/A   Haze
9:33 PM 53.6 °F - 46.4 °F 77% 30.18 in 2.5 mi ENE 4.6 mph - N/A   Haze
9:53 PM 51.8 °F - 46.4 °F 82% 30.18 in 5.0 mi East 3.5 mph - N/A   Haze
10:13 PM 53.6 °F - 46.4 °F 77% 30.19 in 10.0 mi ENE 3.5 mph - N/A   Clear
10:33 PM 51.8 °F - 46.4 °F 82% 30.19 in 7.0 mi Calm Calm - N/A   Clear
10:53 PM 51.8 °F - 46.4 °F 82% 30.19 in 10.0 mi Calm Calm - N/A   Clear
11:13 PM 51.8 °F - 46.4 °F 82% 30.19 in 10.0 mi East 3.5 mph - N/A   Clear
11:33 PM 51.8 °F - 46.4 °F 82% 30.19 in 5.0 mi East 4.6 mph - N/A   Haze
11:53 PM 53.6 °F - 46.4 °F 77% 30.19 in 7.0 mi East 3.5 mph - N/A   Clear